| time (UTC) | temp F | wind direction | speed MPH | gust MPH | rain 1hr in | rain 24hr in | rain mn in | humidity % | barometer mb |
| 20260903171321 | 99 | 117 | 0.0 | 7.0 | 0.00 | 0.00 | 0.00 | 27 | 1012.3 |
| 20260903170820 | 99 | 240 | 0.0 | 3.0 | 0.00 | 0.00 | 0.00 | 26 | 1012.4 |
| 20260903170316 | 99 | 353 | 0.0 | 4.0 | 0.00 | 0.00 | 0.00 | 26 | 1012.4 |
| 20260903165814 | 97 | 6 | 4.0 | 5.0 | 0.00 | 0.00 | 0.00 | 27 | 1012.3 |
| 20260903165308 | 97 | 186 | 1.0 | 4.0 | 0.00 | 0.00 | 0.00 | 28 | 1012.4 |
| 20260903164803 | 97 | 105 | 1.0 | 9.0 | 0.00 | 0.00 | 0.00 | 28 | 1012.5 |
| 20260903164259 | 98 | 297 | 4.0 | 4.0 | 0.00 | 0.00 | 0.00 | 27 | 1012.5 |
| 20260903163757 | 96 | 246 | 0.0 | 6.0 | 0.00 | 0.00 | 0.00 | 29 | 1012.6 |
| 20260903163254 | 96 | 345 | 0.0 | 3.0 | 0.00 | 0.00 | 0.00 | 30 | 1012.6 |
| 20260903162751 | 95 | 288 | 3.0 | 6.0 | 0.00 | 0.00 | 0.00 | 29 | 1012.6 |
| 20260903162246 | 95 | 229 | 3.0 | 5.0 | 0.00 | 0.00 | 0.00 | 31 | 1012.6 |
| 20260903161742 | 95 | 270 | 0.0 | 3.0 | 0.00 | 0.00 | 0.00 | 31 | 1012.7 |
| 20260903161237 | 93 | 221 | 3.0 | 3.0 | 0.00 | 0.00 | 0.00 | 32 | 1012.6 |
| 20260903160733 | 92 | 331 | 2.0 | 5.0 | 0.00 | 0.00 | 0.00 | 33 | 1012.5 |
| 20260903160231 | 93 | 0 | 0.0 | 3.0 | 0.00 | 0.00 | 0.00 | 33 | 1012.6 |
| 20260903155730 | 92 | 276 | 2.0 | 3.0 | 0.00 | 0.00 | 0.00 | 33 | 1012.6 |
| 20260903155225 | 93 | 156 | 0.0 | 2.0 | 0.00 | 0.00 | 0.00 | 33 | 1012.7 |
| 20260903154721 | 91 | 192 | 2.0 | 4.0 | 0.00 | 0.00 | 0.00 | 36 | 1012.9 |
| 20260903154217 | 90 | 206 | 3.0 | 4.0 | 0.00 | 0.00 | 0.00 | 36 | 1012.6 |
| 20260903153712 | 90 | 180 | 1.0 | 3.0 | 0.00 | 0.00 | 0.00 | 37 | 1012.7 |
| 20260903153208 | 89 | 160 | 1.0 | 3.0 | 0.00 | 0.00 | 0.00 | 37 | 1012.7 |
| 20260903152704 | 88 | 156 | 2.0 | 2.0 | 0.00 | 0.00 | 0.00 | 38 | 1012.6 |
| 20260903152200 | 88 | 157 | 0.0 | 2.0 | 0.00 | 0.00 | 0.00 | 39 | 1012.7 |
| 20260903151659 | 85 | 152 | 0.0 | 2.0 | 0.00 | 0.00 | 0.00 | 41 | 1012.7 |
| 20260903151154 | 84 | 188 | 0.0 | 2.0 | 0.00 | 0.00 | 0.00 | 43 | 1012.9 |
| 20260903150654 | 84 | 177 | 2.0 | 2.0 | 0.00 | 0.00 | 0.00 | 44 | 1012.9 |
| 20260903150150 | 83 | 151 | 2.0 | 3.0 | 0.00 | 0.00 | 0.00 | 45 | 1012.6 |
| 20260903145644 | 84 | 176 | 2.0 | 2.0 | 0.00 | 0.00 | 0.00 | 43 | 1012.6 |
| 20260903145139 | 85 | 144 | 2.0 | 2.0 | 0.00 | 0.00 | 0.00 | 43 | 1013.0 |
| 20260903144637 | 85 | 164 | 2.0 | 2.0 | 0.00 | 0.00 | 0.00 | 41 | 1012.6 |
| 20260903144134 | 86 | 199 | 3.0 | 3.0 | 0.00 | 0.00 | 0.00 | 40 | 1012.9 |
| 20260903143630 | 86 | 114 | 1.0 | 2.0 | 0.00 | 0.00 | 0.00 | 41 | 1013.1 |
| 20260903143125 | 84 | 180 | 0.0 | 2.0 | 0.00 | 0.00 | 0.00 | 43 | 1013.0 |
| 20260903142621 | 85 | 157 | 0.0 | 2.0 | 0.00 | 0.00 | 0.00 | 42 | 1013.0 |
| 20260903142117 | 85 | 75 | 0.0 | 2.0 | 0.00 | 0.00 | 0.00 | 42 | 1013.1 |
| 20260903141613 | 83 | 81 | 0.0 | 0.0 | 0.00 | 0.00 | 0.00 | 44 | 1013.1 |
| 20260903141108 | 82 | 77 | 0.0 | 1.0 | 0.00 | 0.00 | 0.00 | 45 | 1013.0 |
| 20260903140604 | 80 | 69 | 0.0 | 1.0 | 0.00 | 0.00 | 0.00 | 47 | 1012.9 |
| 20260903140059 | 82 | 8 | 0.0 | 0.0 | 0.00 | 0.00 | 0.00 | 45 | 1013.1 |
| 20260903135555 | 80 | 0 | 0.0 | 1.0 | 0.00 | 0.00 | 0.00 | 46 | 1013.1 |
| 20260903135055 | 78 | 32 | 2.0 | 3.0 | 0.00 | 0.00 | 0.00 | 49 | 1013.0 |
| 20260903134554 | 78 | 32 | 0.0 | 2.0 | 0.00 | 0.00 | 0.00 | 48 | 1012.9 |
| 20260903134050 | 78 | 32 | 0.0 | 3.0 | 0.00 | 0.00 | 0.00 | 49 | 1013.1 |
| 20260903133547 | 77 | 14 | 1.0 | 2.0 | 0.00 | 0.00 | 0.00 | 51 | 1012.9 |
| 20260903133043 | 76 | 23 | 2.0 | 2.0 | 0.00 | 0.00 | 0.00 | 53 | 1012.9 |
| 20260903132538 | 74 | 343 | 2.0 | 3.0 | 0.00 | 0.00 | 0.00 | 54 | 1012.7 |
| 20260903132033 | 75 | 90 | 0.0 | 0.0 | 0.00 | 0.00 | 0.00 | 53 | 1012.7 |
| 20260903131532 | 74 | 90 | 0.0 | 2.0 | 0.00 | 0.00 | 0.00 | 53 | 1012.7 |
| 20260903131032 | 73 | 8 | 0.0 | 0.0 | 0.00 | 0.00 | 0.00 | 55 | 1012.6 |
| 20260903130526 | 71 | 26 | 0.0 | 2.0 | 0.00 | 0.00 | 0.00 | 56 | 1012.6 |
| 20260903130021 | 71 | 60 | 1.0 | 2.0 | 0.00 | 0.00 | 0.00 | 56 | 1012.6 |
| 20260903125519 | 71 | 8 | 0.0 | 0.0 | 0.00 | 0.00 | 0.00 | 56 | 1012.5 |
| 20260903125015 | 70 | 8 | 0.0 | 1.0 | 0.00 | 0.00 | 0.00 | 57 | 1012.4 |
| 20260903124509 | 71 | 344 | 0.0 | 2.0 | 0.00 | 0.00 | 0.00 | 59 | 1012.5 |
| 20260903124009 | 70 | 337 | 0.0 | 2.0 | 0.00 | 0.00 | 0.00 | 58 | 1012.9 |
| 20260903123504 | 72 | 168 | 0.0 | 0.0 | 0.00 | 0.00 | 0.00 | 58 | 1012.3 |
| 20260903123001 | 72 | 168 | 0.0 | 1.0 | 0.00 | 0.00 | 0.00 | 58 | 1012.4 |
| 20260903122456 | 71 | 334 | 0.0 | 1.0 | 0.00 | 0.00 | 0.00 | 57 | 1012.5 |
| 20260903121956 | 72 | 106 | 0.0 | 1.0 | 0.00 | 0.00 | 0.00 | 58 | 1012.3 |
| 20260903121450 | 73 | 5 | 0.0 | 0.0 | 0.00 | 0.00 | 0.00 | 59 | 1012.4 |
| 20260903120947 | 72 | 5 | 0.0 | 0.0 | 0.00 | 0.00 | 0.00 | 58 | 1012.4 |
| 20260903120445 | 72 | 5 | 0.0 | 0.0 | 0.00 | 0.00 | 0.00 | 58 | 1012.2 |
| 20260903115943 | 72 | 21 | 2.0 | 2.0 | 0.00 | 0.00 | 0.00 | 57 | 1012.2 |
| 20260903115438 | 73 | 180 | 0.0 | 0.0 | 0.00 | 0.00 | 0.00 | 57 | 1012.2 |
| 20260903114933 | 73 | 180 | 0.0 | 0.0 | 0.00 | 0.00 | 0.00 | 57 | 1012.1 |
| 20260903114428 | 73 | 180 | 0.0 | 0.0 | 0.00 | 0.00 | 0.00 | 56 | 1011.9 |
| 20260903113924 | 73 | 180 | 0.0 | 0.0 | 0.00 | 0.00 | 0.00 | 56 | 1012.1 |
| 20260903113419 | 74 | 198 | 0.0 | 0.0 | 0.00 | 0.00 | 0.00 | 55 | 1012.0 |
| 20260903112915 | 74 | 236 | 0.0 | 2.0 | 0.00 | 0.00 | 0.00 | 55 | 1012.0 |
| 20260903112410 | 74 | 180 | 0.0 | 2.0 | 0.00 | 0.00 | 0.00 | 55 | 1011.6 |
| 20260903111909 | 75 | 173 | 0.0 | 1.0 | 0.00 | 0.00 | 0.00 | 54 | 1011.8 |
| 20260903111409 | 75 | 195 | 0.0 | 1.0 | 0.00 | 0.00 | 0.00 | 54 | 1011.8 |
| 20260903110906 | 75 | 180 | 0.0 | 1.0 | 0.00 | 0.00 | 0.00 | 54 | 1011.8 |
| 20260903110401 | 75 | 198 | 0.0 | 1.0 | 0.00 | 0.00 | 0.00 | 53 | 1011.6 |
| 20260903105855 | 76 | 171 | 2.0 | 3.0 | 0.00 | 0.00 | 0.00 | 53 | 1011.5 |
| 20260903105351 | 76 | 145 | 1.0 | 4.0 | 0.00 | 0.00 | 0.00 | 52 | 1011.4 |
| 20260903104850 | 75 | 166 | 2.0 | 3.0 | 0.00 | 0.00 | 0.00 | 53 | 1011.5 |
| 20260903104345 | 75 | 166 | 2.0 | 3.0 | 0.00 | 0.00 | 0.00 | 53 | 1011.5 |
| 20260903103842 | 75 | 165 | 2.0 | 3.0 | 0.00 | 0.00 | 0.00 | 53 | 1011.8 |
| 20260903103338 | 75 | 152 | 3.0 | 3.0 | 0.00 | 0.00 | 0.00 | 53 | 1012.0 |
| 20260903102833 | 76 | 180 | 0.0 | 2.0 | 0.00 | 0.00 | 0.00 | 53 | 1011.8 |
| 20260903102332 | 75 | 157 | 1.0 | 2.0 | 0.00 | 0.00 | 0.00 | 53 | 1011.9 |
| 20260903101827 | 76 | 151 | 1.0 | 3.0 | 0.00 | 0.00 | 0.00 | 53 | 1012.0 |
| 20260903101322 | 76 | 177 | 3.0 | 4.0 | 0.00 | 0.00 | 0.00 | 52 | 1011.8 |
| 20260903100818 | 77 | 144 | 2.0 | 4.0 | 0.00 | 0.00 | 0.00 | 52 | 1012.1 |
| 20260903100317 | 77 | 187 | 4.0 | 4.0 | 0.00 | 0.00 | 0.00 | 52 | 1012.1 |
| 20260903095815 | 77 | 243 | 1.0 | 3.0 | 0.00 | 0.00 | 0.00 | 51 | 1012.1 |
| 20260903095309 | 77 | 157 | 0.0 | 2.0 | 0.00 | 0.00 | 0.00 | 51 | 1012.3 |
| 20260903094804 | 77 | 180 | 1.0 | 2.0 | 0.00 | 0.00 | 0.00 | 51 | 1012.1 |
| 20260903094259 | 77 | 246 | 0.0 | 2.0 | 0.00 | 0.00 | 0.00 | 52 | 1012.1 |
| 20260903093755 | 76 | 279 | 0.0 | 0.0 | 0.00 | 0.00 | 0.00 | 52 | 1012.0 |
| 20260903093250 | 76 | 279 | 0.0 | 0.0 | 0.00 | 0.00 | 0.00 | 51 | 1012.0 |
| 20260903092744 | 76 | 254 | 0.0 | 1.0 | 0.00 | 0.00 | 0.00 | 50 | 1011.9 |
| 20260903092239 | 76 | 90 | 0.0 | 0.0 | 0.00 | 0.00 | 0.00 | 50 | 1011.9 |
| 20260903091738 | 76 | 90 | 0.0 | 0.0 | 0.00 | 0.00 | 0.00 | 50 | 1011.9 |
| 20260903091232 | 77 | 165 | 0.0 | 0.0 | 0.00 | 0.00 | 0.00 | 49 | 1011.8 |
| 20260903090728 | 77 | 165 | 0.0 | 0.0 | 0.00 | 0.00 | 0.00 | 49 | 1011.8 |
| 20260903090226 | 77 | 165 | 0.0 | 0.0 | 0.00 | 0.00 | 0.00 | 49 | 1011.8 |
| 20260903085725 | 77 | 165 | 0.0 | 1.0 | 0.00 | 0.00 | 0.00 | 48 | 1011.8 |
| 20260903085221 | 77 | 225 | 0.0 | 3.0 | 0.00 | 0.00 | 0.00 | 48 | 1012.0 |
| 20260903084718 | 77 | 195 | 0.0 | 1.0 | 0.00 | 0.00 | 0.00 | 48 | 1011.6 |
| 20260903084214 | 77 | 270 | 0.0 | 1.0 | 0.00 | 0.00 | 0.00 | 48 | 1011.9 |
| 20260903083709 | 75 | 341 | 0.0 | 2.0 | 0.00 | 0.00 | 0.00 | 49 | 1011.9 |
| 20260903083203 | 75 | 0 | 0.0 | 2.0 | 0.00 | 0.00 | 0.00 | 49 | 1011.6 |
| 20260903082657 | 76 | 6 | 1.0 | 2.0 | 0.00 | 0.00 | 0.00 | 48 | 1011.6 |
| 20260903082154 | 78 | 8 | 0.0 | 0.0 | 0.00 | 0.00 | 0.00 | 47 | 1012.0 |
| 20260903081648 | 78 | 165 | 0.0 | 0.0 | 0.00 | 0.00 | 0.00 | 47 | 1011.6 |
| 20260903081144 | 78 | 198 | 0.0 | 2.0 | 0.00 | 0.00 | 0.00 | 46 | 1012.0 |
| 20260903080640 | 79 | 206 | 1.0 | 3.0 | 0.00 | 0.00 | 0.00 | 46 | 1011.8 |
| 20260903080137 | 79 | 165 | 1.0 | 3.0 | 0.00 | 0.00 | 0.00 | 45 | 1011.9 |
| 20260903075631 | 79 | 154 | 2.0 | 3.0 | 0.00 | 0.00 | 0.00 | 45 | 1011.8 |
| 20260903075126 | 79 | 160 | 0.0 | 3.0 | 0.00 | 0.00 | 0.00 | 45 | 1011.8 |
| 20260903074625 | 79 | 173 | 1.0 | 3.0 | 0.00 | 0.00 | 0.00 | 45 | 1011.8 |
| 20260903074120 | 79 | 186 | 0.0 | 3.0 | 0.00 | 0.00 | 0.00 | 45 | 1011.9 |
| 20260903073616 | 79 | 161 | 2.0 | 3.0 | 0.00 | 0.00 | 0.00 | 45 | 1011.9 |
| 20260903073111 | 79 | 203 | 1.0 | 2.0 | 0.00 | 0.00 | 0.00 | 45 | 1011.9 |
| 20260903072607 | 78 | 84 | 0.0 | 2.0 | 0.00 | 0.00 | 0.00 | 46 | 1011.8 |
| 20260903072103 | 78 | 127 | 0.0 | 2.0 | 0.00 | 0.00 | 0.00 | 46 | 1012.0 |
| 20260903071559 | 78 | 168 | 0.0 | 1.0 | 0.00 | 0.00 | 0.00 | 45 | 1012.1 |
| 20260903071054 | 80 | 169 | 2.0 | 3.0 | 0.00 | 0.00 | 0.00 | 46 | 1011.8 |
| 20260903070553 | 82 | 188 | 0.0 | 1.0 | 0.00 | 0.00 | 0.00 | 44 | 1011.8 |
| 20260903070050 | 83 | 188 | 0.0 | 1.0 | 0.00 | 0.00 | 0.00 | 43 | 1011.8 |
| 20260903065548 | 83 | 154 | 1.0 | 2.0 | 0.00 | 0.00 | 0.00 | 42 | 1011.9 |
| 20260903065043 | 84 | 173 | 0.0 | 1.0 | 0.00 | 0.00 | 0.00 | 42 | 1011.9 |
| 20260903064543 | 83 | 210 | 2.0 | 2.0 | 0.00 | 0.00 | 0.00 | 43 | 1011.9 |
| 20260903064038 | 83 | 183 | 3.0 | 3.0 | 0.00 | 0.00 | 0.00 | 43 | 1012.0 |
| 20260903063533 | 83 | 180 | 0.0 | 3.0 | 0.00 | 0.00 | 0.00 | 43 | 1012.1 |
| 20260903063029 | 82 | 237 | 0.0 | 2.0 | 0.00 | 0.00 | 0.00 | 44 | 1011.9 |
| 20260903062524 | 81 | 186 | 0.0 | 2.0 | 0.00 | 0.00 | 0.00 | 45 | 1011.9 |
| 20260903062019 | 81 | 180 | 1.0 | 3.0 | 0.00 | 0.00 | 0.00 | 45 | 1012.0 |
| 20260903061515 | 82 | 106 | 0.0 | 2.0 | 0.00 | 0.00 | 0.00 | 43 | 1011.8 |
| 20260903061009 | 82 | 160 | 0.0 | 1.0 | 0.00 | 0.00 | 0.00 | 43 | 1012.1 |
| 20260903060503 | 82 | 157 | 0.0 | 0.0 | 0.00 | 0.00 | 0.00 | 44 | 1011.9 |
| 20260903060004 | 82 | 157 | 0.0 | 0.0 | 0.00 | 0.00 | 0.00 | 43 | 1012.3 |
| 20260903055501 | 82 | 157 | 0.0 | 1.0 | 0.00 | 0.00 | 0.00 | 43 | 1012.1 |
| 20260903055000 | 83 | 176 | 0.0 | 2.0 | 0.00 | 0.00 | 0.00 | 43 | 1012.2 |
| 20260903054455 | 83 | 188 | 0.0 | 2.0 | 0.00 | 0.00 | 0.00 | 42 | 1012.0 |
| 20260903053951 | 83 | 194 | 1.0 | 2.0 | 0.00 | 0.00 | 0.00 | 42 | 1012.0 |
| 20260903053450 | 83 | 229 | 0.0 | 3.0 | 0.00 | 0.00 | 0.00 | 43 | 1012.3 |
| 20260903052948 | 82 | 228 | 2.0 | 3.0 | 0.00 | 0.00 | 0.00 | 43 | 1012.2 |
| 20260903052443 | 82 | 207 | 0.0 | 3.0 | 0.00 | 0.00 | 0.00 | 43 | 1012.0 |
| 20260903051938 | 83 | 216 | 2.0 | 3.0 | 0.00 | 0.00 | 0.00 | 42 | 1011.9 |
| 20260903051433 | 84 | 239 | 2.0 | 3.0 | 0.00 | 0.00 | 0.00 | 41 | 1012.3 |
| 20260903050929 | 84 | 212 | 2.0 | 3.0 | 0.00 | 0.00 | 0.00 | 41 | 1012.1 |
| 20260903050428 | 84 | 250 | 2.0 | 3.0 | 0.00 | 0.00 | 0.00 | 42 | 1012.3 |
| 20260903045922 | 83 | 216 | 0.0 | 2.0 | 0.00 | 0.00 | 0.00 | 42 | 1012.5 |
| 20260903045418 | 83 | 192 | 1.0 | 2.0 | 0.00 | 0.00 | 0.00 | 41 | 1012.3 |
| 20260903044915 | 83 | 199 | 0.0 | 2.0 | 0.00 | 0.00 | 0.00 | 41 | 1012.4 |
| 20260903044415 | 84 | 338 | 3.0 | 4.0 | 0.00 | 0.00 | 0.00 | 40 | 1012.3 |
| 20260903043912 | 85 | 195 | 1.0 | 2.0 | 0.00 | 0.00 | 0.00 | 40 | 1012.1 |
| 20260903043407 | 85 | 157 | 0.0 | 2.0 | 0.00 | 0.00 | 0.00 | 39 | 1012.2 |
| 20260903042905 | 85 | 209 | 1.0 | 2.0 | 0.00 | 0.00 | 0.00 | 39 | 1012.1 |
| 20260903042401 | 84 | 240 | 0.0 | 2.0 | 0.00 | 0.00 | 0.00 | 39 | 1012.0 |
| 20260903041856 | 84 | 246 | 0.0 | 2.0 | 0.00 | 0.00 | 0.00 | 40 | 1012.1 |
| 20260903041352 | 84 | 243 | 0.0 | 1.0 | 0.00 | 0.00 | 0.00 | 41 | 1012.2 |
| 20260903040848 | 84 | 235 | 0.0 | 2.0 | 0.00 | 0.00 | 0.00 | 41 | 1012.2 |
| 20260903040347 | 84 | 240 | 0.0 | 1.0 | 0.00 | 0.00 | 0.00 | 41 | 1012.0 |
| 20260903035843 | 83 | 213 | 2.0 | 3.0 | 0.00 | 0.00 | 0.00 | 42 | 1011.9 |
| 20260903035338 | 84 | 233 | 0.0 | 2.0 | 0.00 | 0.00 | 0.00 | 44 | 1011.9 |
| 20260903034834 | 84 | 254 | 1.0 | 2.0 | 0.00 | 0.00 | 0.00 | 44 | 1012.1 |
| 20260903034329 | 85 | 243 | 0.0 | 2.0 | 0.00 | 0.00 | 0.00 | 42 | 1012.0 |
| 20260903033824 | 84 | 195 | 0.0 | 1.0 | 0.00 | 0.00 | 0.00 | 42 | 1011.8 |
| 20260903033319 | 85 | 237 | 0.0 | 2.0 | 0.00 | 0.00 | 0.00 | 41 | 1012.0 |
| 20260903032818 | 85 | 249 | 0.0 | 2.0 | 0.00 | 0.00 | 0.00 | 40 | 1012.0 |
| 20260903032315 | 85 | 240 | 0.0 | 2.0 | 0.00 | 0.00 | 0.00 | 39 | 1011.9 |
| 20260903031810 | 86 | 187 | 1.0 | 1.0 | 0.00 | 0.00 | 0.00 | 38 | 1011.8 |
| 20260903031309 | 86 | 180 | 0.0 | 1.0 | 0.00 | 0.00 | 0.00 | 37 | 1011.6 |
| 20260903030805 | 86 | 209 | 0.0 | 3.0 | 0.00 | 0.00 | 0.00 | 37 | 1011.5 |
| 20260903030301 | 87 | 148 | 0.0 | 2.0 | 0.00 | 0.00 | 0.00 | 36 | 1011.6 |
| 20260903025756 | 87 | 165 | 1.0 | 5.0 | 0.00 | 0.00 | 0.00 | 36 | 1011.5 |
| 20260903025252 | 88 | 161 | 3.0 | 5.0 | 0.00 | 0.00 | 0.00 | 36 | 1011.3 |
| 20260903024746 | 88 | 177 | 3.0 | 4.0 | 0.00 | 0.00 | 0.00 | 35 | 1011.4 |
| 20260903024245 | 88 | 131 | 2.0 | 2.0 | 0.00 | 0.00 | 0.00 | 35 | 1011.4 |
| 20260903023741 | 88 | 152 | 2.0 | 3.0 | 0.00 | 0.00 | 0.00 | 35 | 1011.1 |
| 20260903023236 | 88 | 146 | 2.0 | 4.0 | 0.00 | 0.00 | 0.00 | 35 | 1010.9 |
| 20260903022731 | 88 | 180 | 2.0 | 4.0 | 0.00 | 0.00 | 0.00 | 35 | 1011.0 |
| 20260903022230 | 89 | 166 | 1.0 | 4.0 | 0.00 | 0.00 | 0.00 | 35 | 1010.8 |
| 20260903021725 | 89 | 168 | 2.0 | 4.0 | 0.00 | 0.00 | 0.00 | 35 | 1010.9 |
| 20260903021220 | 89 | 188 | 2.0 | 4.0 | 0.00 | 0.00 | 0.00 | 35 | 1010.8 |
| 20260903020720 | 89 | 158 | 0.0 | 3.0 | 0.00 | 0.00 | 0.00 | 35 | 1011.0 |
| 20260903020214 | 89 | 180 | 0.0 | 3.0 | 0.00 | 0.00 | 0.00 | 35 | 1010.9 |
| 20260903015709 | 90 | 180 | 1.0 | 3.0 | 0.00 | 0.00 | 0.00 | 34 | 1010.8 |
| 20260903015205 | 90 | 180 | 0.0 | 3.0 | 0.00 | 0.00 | 0.00 | 34 | 1010.6 |
| 20260903014701 | 90 | 180 | 1.0 | 2.0 | 0.00 | 0.00 | 0.00 | 34 | 1010.8 |
| 20260903014200 | 90 | 192 | 1.0 | 2.0 | 0.00 | 0.00 | 0.00 | 34 | 1010.9 |
| 20260903013655 | 91 | 163 | 2.0 | 3.0 | 0.00 | 0.00 | 0.00 | 33 | 1010.6 |
| 20260903013154 | 91 | 195 | 2.0 | 5.0 | 0.00 | 0.00 | 0.00 | 33 | 1010.6 |
| 20260903012653 | 91 | 180 | 2.0 | 4.0 | 0.00 | 0.00 | 0.00 | 33 | 1010.6 |
| 20260903012152 | 91 | 172 | 0.0 | 3.0 | 0.00 | 0.00 | 0.00 | 32 | 1010.4 |
| 20260903011653 | 92 | 188 | 1.0 | 6.0 | 0.00 | 0.00 | 0.00 | 32 | 1010.6 |
| 20260903011152 | 93 | 180 | 2.0 | 4.0 | 0.00 | 0.00 | 0.00 | 31 | 1010.4 |
| 20260903010647 | 93 | 167 | 3.0 | 5.0 | 0.00 | 0.00 | 0.00 | 31 | 1010.4 |
| 20260903010146 | 93 | 169 | 3.0 | 6.0 | 0.00 | 0.00 | 0.00 | 31 | 1010.1 |
| 20260903005641 | 94 | 160 | 1.0 | 5.0 | 0.00 | 0.00 | 0.00 | 31 | 1010.6 |
| 20260903005136 | 95 | 176 | 4.0 | 8.0 | 0.00 | 0.00 | 0.00 | 30 | 1010.3 |
| 20260903004631 | 95 | 196 | 3.0 | 8.0 | 0.00 | 0.00 | 0.00 | 29 | 1010.4 |
| 20260903004126 | 95 | 177 | 3.0 | 7.0 | 0.00 | 0.00 | 0.00 | 29 | 1010.4 |
| 20260903003622 | 96 | 172 | 3.0 | 8.0 | 0.00 | 0.00 | 0.00 | 29 | 1010.6 |
| 20260903003117 | 96 | 164 | 7.0 | 10.0 | 0.00 | 0.00 | 0.00 | 29 | 1010.8 |
| 20260903002612 | 96 | 189 | 4.0 | 8.0 | 0.00 | 0.00 | 0.00 | 29 | 1010.6 |
| 20260903002106 | 95 | 184 | 4.0 | 7.0 | 0.00 | 0.00 | 0.00 | 29 | 1010.4 |
| 20260903001601 | 95 | 193 | 3.0 | 7.0 | 0.00 | 0.00 | 0.00 | 30 | 1010.6 |
| 20260903001055 | 95 | 159 | 2.0 | 5.0 | 0.00 | 0.00 | 0.00 | 29 | 1010.6 |
| 20260903000551 | 95 | 171 | 6.0 | 6.0 | 0.00 | 0.00 | 0.00 | 28 | 1010.8 |
| 20260903000049 | 96 | 193 | 5.0 | 10.0 | 0.00 | 0.00 | 0.00 | 28 | 1010.4 |
| 20260902235544 | 96 | 184 | 2.0 | 6.0 | 0.00 | 0.00 | 0.00 | 27 | 1010.8 |
| 20260902235039 | 96 | 177 | 3.0 | 10.0 | 0.00 | 0.00 | 0.00 | 27 | 1010.9 |
| 20260902234538 | 97 | 173 | 6.0 | 9.0 | 0.00 | 0.00 | 0.00 | 28 | 1010.7 |
| 20260902234037 | 96 | 182 | 3.0 | 7.0 | 0.00 | 0.00 | 0.00 | 26 | 1010.6 |
| 20260902233532 | 97 | 150 | 3.0 | 4.0 | 0.00 | 0.00 | 0.00 | 27 | 1010.7 |
| 20260902233027 | 96 | 174 | 7.0 | 9.0 | 0.00 | 0.00 | 0.00 | 25 | 1010.7 |
| 20260902232526 | 96 | 174 | 7.0 | 8.0 | 0.00 | 0.00 | 0.00 | 25 | 1010.3 |
| 20260902232020 | 97 | 190 | 0.0 | 9.0 | 0.00 | 0.00 | 0.00 | 24 | 1010.6 |
| 20260902231515 | 97 | 234 | 4.0 | 4.0 | 0.00 | 0.00 | 0.00 | 25 | 1010.7 |
| 20260902231009 | 96 | 206 | 2.0 | 6.0 | 0.00 | 0.00 | 0.00 | 25 | 1010.9 |
| 20260902230509 | 96 | 184 | 4.0 | 6.0 | 0.00 | 0.00 | 0.00 | 25 | 1010.7 |
| 20260902230003 | 96 | 208 | 2.0 | 8.0 | 0.00 | 0.00 | 0.00 | 25 | 1010.9 |
| 20260902225458 | 96 | 185 | 2.0 | 5.0 | 0.00 | 0.00 | 0.00 | 26 | 1010.6 |
| 20260902224957 | 95 | 163 | 4.0 | 6.0 | 0.00 | 0.00 | 0.00 | 27 | 1010.7 |
| 20260902224451 | 96 | 182 | 4.0 | 8.0 | 0.00 | 0.00 | 0.00 | 26 | 1011.0 |
| 20260902223948 | 96 | 164 | 4.0 | 6.0 | 0.00 | 0.00 | 0.00 | 26 | 1011.0 |
| 20260902223443 | 96 | 177 | 3.0 | 6.0 | 0.00 | 0.00 | 0.00 | 27 | 1011.1 |
| 20260902222943 | 95 | 156 | 5.0 | 10.0 | 0.00 | 0.00 | 0.00 | 27 | 1011.0 |
| 20260902222441 | 95 | 181 | 5.0 | 8.0 | 0.00 | 0.00 | 0.00 | 26 | 1010.9 |
| 20260902221941 | 95 | 157 | 5.0 | 7.0 | 0.00 | 0.00 | 0.00 | 26 | 1010.8 |
| 20260902221439 | 95 | 185 | 5.0 | 7.0 | 0.00 | 0.00 | 0.00 | 25 | 1011.1 |
| 20260902220936 | 95 | 161 | 5.0 | 7.0 | 0.00 | 0.00 | 0.00 | 26 | 1011.3 |
| 20260902220435 | 95 | 178 | 4.0 | 7.0 | 0.00 | 0.00 | 0.00 | 25 | 1011.2 |
| 20260902215930 | 96 | 206 | 0.0 | 6.0 | 0.00 | 0.00 | 0.00 | 26 | 1011.1 |
| 20260902215426 | 95 | 149 | 4.0 | 7.0 | 0.00 | 0.00 | 0.00 | 27 | 1011.2 |
| 20260902214922 | 96 | 195 | 3.0 | 5.0 | 0.00 | 0.00 | 0.00 | 27 | 1011.4 |
| 20260902214420 | 95 | 189 | 3.0 | 6.0 | 0.00 | 0.00 | 0.00 | 28 | 1011.4 |
| 20260902213915 | 95 | 203 | 3.0 | 7.0 | 0.00 | 0.00 | 0.00 | 26 | 1011.3 |
| 20260902213412 | 96 | 223 | 4.0 | 8.0 | 0.00 | 0.00 | 0.00 | 25 | 1011.5 |
| 20260902212910 | 96 | 220 | 4.0 | 8.0 | 0.00 | 0.00 | 0.00 | 25 | 1011.8 |
| 20260902212406 | 96 | 244 | 4.0 | 10.0 | 0.00 | 0.00 | 0.00 | 24 | 1011.5 |
| 20260902211902 | 95 | 235 | 5.0 | 11.0 | 0.00 | 0.00 | 0.00 | 26 | 1011.9 |
| 20260902211358 | 95 | 223 | 4.0 | 11.0 | 0.00 | 0.00 | 0.00 | 27 | 1012.0 |
| 20260902210853 | 94 | 236 | 3.0 | 15.0 | 0.00 | 0.00 | 0.00 | 26 | 1011.9 |
| 20260902210352 | 95 | 212 | 5.0 | 16.0 | 0.00 | 0.00 | 0.00 | 25 | 1012.1 |
| 20260902205851 | 95 | 243 | 9.0 | 22.0 | 0.00 | 0.00 | 0.00 | 27 | 1012.3 |
| 20260902205345 | 93 | 242 | 13.0 | 22.0 | 0.00 | 0.00 | 0.00 | 30 | 1012.0 |
| 20260902204842 | 93 | 104 | 0.0 | 10.0 | 0.00 | 0.00 | 0.00 | 33 | 1012.4 |
| 20260902204336 | 93 | 222 | 11.0 | 17.0 | 0.00 | 0.00 | 0.00 | 33 | 1012.3 |
| 20260902203832 | 94 | 173 | 5.0 | 16.0 | 0.00 | 0.00 | 0.00 | 32 | 1012.2 |
| 20260902203326 | 94 | 206 | 1.0 | 14.0 | 0.00 | 0.00 | 0.00 | 34 | 1012.3 |
| 20260902202826 | 94 | 244 | 3.0 | 17.0 | 0.00 | 0.00 | 0.00 | 34 | 1012.5 |
| 20260902202322 | 97 | 195 | 12.0 | 15.0 | 0.00 | 0.00 | 0.00 | 28 | 1012.4 |
| 20260902201818 | 98 | 291 | 0.0 | 3.0 | 0.00 | 0.00 | 0.00 | 25 | 1012.5 |
| 20260902201313 | 99 | 219 | 5.0 | 8.0 | 0.00 | 0.00 | 0.00 | 25 | 1012.3 |
| 20260902200808 | 100 | 208 | 3.0 | 9.0 | 0.00 | 0.00 | 0.00 | 24 | 1012.3 |
| 20260902200303 | 100 | 165 | 5.0 | 9.0 | 0.00 | 0.00 | 0.00 | 26 | 1012.3 |
| 20260902195758 | 100 | 152 | 3.0 | 7.0 | 0.00 | 0.00 | 0.00 | 26 | 1012.6 |
| 20260902195257 | 100 | 345 | 4.0 | 6.0 | 0.00 | 0.00 | 0.00 | 26 | 1012.4 |
| 20260902194752 | 100 | 24 | 0.0 | 6.0 | 0.00 | 0.00 | 0.00 | 25 | 1012.5 |
| 20260902194247 | 100 | 300 | 0.0 | 4.0 | 0.00 | 0.00 | 0.00 | 26 | 1012.7 |
| 20260902193743 | 99 | 196 | 5.0 | 10.0 | 0.00 | 0.00 | 0.00 | 26 | 1012.6 |
| 20260902193238 | 100 | 235 | 0.0 | 4.0 | 0.00 | 0.00 | 0.00 | 27 | 1013.0 |
| 20260902192736 | 98 | 62 | 3.0 | 5.0 | 0.00 | 0.00 | 0.00 | 28 | 1013.0 |
| 20260902192236 | 99 | 239 | 3.0 | 3.0 | 0.00 | 0.00 | 0.00 | 26 | 1013.0 |
| 20260902191730 | 98 | 192 | 2.0 | 9.0 | 0.00 | 0.00 | 0.00 | 27 | 1013.0 |
| 20260902191225 | 100 | 171 | 5.0 | 5.0 | 0.00 | 0.00 | 0.00 | 26 | 1013.2 |
| 20260902190721 | 99 | 270 | 0.0 | 6.0 | 0.00 | 0.00 | 0.00 | 27 | 1013.1 |
| 20260902190220 | 98 | 0 | 2.0 | 4.0 | 0.00 | 0.00 | 0.00 | 27 | 1013.3 |
| 20260902185716 | 97 | 262 | 0.0 | 8.0 | 0.00 | 0.00 | 0.00 | 28 | 1013.3 |
| 20260902185212 | 99 | 235 | 2.0 | 5.0 | 0.00 | 0.00 | 0.00 | 28 | 1013.5 |
| 20260902184707 | 98 | 225 | 0.0 | 5.0 | 0.00 | 0.00 | 0.00 | 28 | 1013.6 |
| 20260902184202 | 98 | 190 | 2.0 | 5.0 | 0.00 | 0.00 | 0.00 | 28 | 1013.6 |
| 20260902183658 | 97 | 180 | 3.0 | 7.0 | 0.00 | 0.00 | 0.00 | 28 | 1013.6 |
| 20260902183154 | 97 | 194 | 1.0 | 5.0 | 0.00 | 0.00 | 0.00 | 29 | 1014.1 |
| 20260902182650 | 97 | 166 | 3.0 | 5.0 | 0.00 | 0.00 | 0.00 | 30 | 1014.2 |
| 20260902182147 | 97 | 191 | 6.0 | 9.0 | 0.00 | 0.00 | 0.00 | 30 | 1014.2 |
| 20260902181642 | 96 | 114 | 2.0 | 5.0 | 0.00 | 0.00 | 0.00 | 30 | 1014.1 |
| 20260902181142 | 96 | 168 | 4.0 | 4.0 | 0.00 | 0.00 | 0.00 | 30 | 1014.5 |
| 20260902180642 | 97 | 161 | 0.0 | 4.0 | 0.00 | 0.00 | 0.00 | 29 | 1014.5 |
| 20260902180138 | 95 | 156 | 2.0 | 8.0 | 0.00 | 0.00 | 0.00 | 31 | 1014.5 |
| 20260902175637 | 96 | 197 | 3.0 | 4.0 | 0.00 | 0.00 | 0.00 | 30 | 1014.2 |
| 20260902175133 | 94 | 348 | 0.0 | 5.0 | 0.00 | 0.00 | 0.00 | 32 | 1014.4 |
| 20260902174629 | 95 | 0 | 0.0 | 3.0 | 0.00 | 0.00 | 0.00 | 32 | 1014.8 |
| 20260902174125 | 95 | 150 | 3.0 | 4.0 | 0.00 | 0.00 | 0.00 | 31 | 1014.6 |
| 20260902173620 | 95 | 262 | 5.0 | 5.0 | 0.00 | 0.00 | 0.00 | 32 | 1014.7 |
| 20260902173115 | 94 | 183 | 3.0 | 6.0 | 0.00 | 0.00 | 0.00 | 33 | 1015.0 |
| 20260902172609 | 96 | 156 | 7.0 | 7.0 | 0.00 | 0.00 | 0.00 | 31 | 1015.0 |
| 20260902172103 | 95 | 26 | 3.0 | 4.0 | 0.00 | 0.00 | 0.00 | 31 | 1015.1 |
| 20260902171559 | 94 | 114 | 1.0 | 4.0 | 0.00 | 0.00 | 0.00 | 33 | 1015.3 |